Location: Pallagorio
(39.3000°N, 16.9000°E)
Time: 19:02:32
(UTC+00:00)

COSMOS 2406 - Pass Details

Date: 24 January 2021
Orbit: 841 x 865 km, 71.0° (Epoch: 02 March)

Event Time Altitude Azimuth Distance (km) Brightness Sun altitude
Rises 18:25:30 0° 335° (NNW) 3,454 6.7 -27.3°
Reaches altitude 10° 18:27:58 10° 334° (NNW) 2,512 5.9 -27.8°
Maximum altitude 18:33:44 75° 250° (WSW) 894 3.3 -28.9°
Enters shadow 18:34:33 64° 193° (SSW) 953 3.4 -29.1°
